This is the latest recevied weather packets stored in our database for station/object AD8AK. If no packets are shown the sender has not sent any weather packets the latest 10 day(s).
| Time | Temp. | Humidity | Pressure | Rain* | Wind** | Luminosity | Snow |
|---|---|---|---|---|---|---|---|
| 1777590878 | 12.22° C | 45% | 1014.2 hPa | 0 mm | - | - | - |
| 1777590576 | 12.22° C | 43% | 1014.4 hPa | 0 mm | - | - | - |
| 1777590272 | 12.78° C | 43% | 1014.2 hPa | 0 mm | - | - | - |
| 1777589969 | 13.33° C | 45% | 1014.2 hPa | 0 mm | - | - | - |
| 1777589666 | 12.78° C | 43% | 1014.3 hPa | 0 mm | - | - | - |
| 1777589363 | 12.78° C | 43% | 1014.3 hPa | 0 mm | - | - | - |
| 1777589060 | 12.78° C | 46% | 1014.6 hPa | 0 mm | - | - | - |
| 1777588756 | 12.78° C | 44% | 1014.6 hPa | 0 mm | - | - | - |
| 1777588452 | 12.78° C | 44% | 1014.4 hPa | 0 mm | - | - | - |
| 1777588147 | 12.78° C | 44% | 1014.5 hPa | 0 mm | - | - | - |
| 1777587844 | 12.78° C | 45% | 1014.5 hPa | 0 mm | - | - | - |
| 1777587543 | 13.33° C | 41% | 1014.4 hPa | 0 mm | - | - | - |
| 1777587239 | 13.33° C | 43% | 1014.5 hPa | 0 mm | - | - | - |
| 1777586935 | 13.33° C | 42% | 1014.4 hPa | 0 mm | - | - | - |
| 1777586631 | 13.33° C | 44% | 1014.4 hPa | 0 mm | - | - | - |
| 1777586326 | 13.33° C | 42% | 1014.3 hPa | 0 mm | - | - | - |
| 1777586025 | 13.33° C | 45% | 1014.5 hPa | 0 mm | - | - | - |
| 1777585725 | 13.33° C | 43% | 1014.4 hPa | 0 mm | - | - | - |
| 1777585424 | 12.78° C | 43% | 1014.5 hPa | 0 mm | - | - | - |
| 1777585120 | 12.22° C | 45% | 1014.4 hPa | 0 mm | - | - | - |
| 1777584816 | 12.78° C | 46% | 1014.3 hPa | 0 mm | - | - | - |
| 1777584514 | 12.78° C | 43% | 1014.4 hPa | 0 mm | - | - | - |
| 1777584211 | 13.33° C | 43% | 1014.5 hPa | 0 mm | - | - | - |
| 1777583910 | 13.33° C | 43% | 1014.3 hPa | 0 mm | - | - | - |
| 1777583606 | 13.33° C | 41% | 1014.4 hPa | 0 mm | - | - | - |
* Rain latest hour (hover to see other rain measurements)
** Current wind speed in m/s (hover to see current wind gust speed)